This is the latest recevied weather packets stored in our database for station/object KY4GW. If no packets are shown the sender has not sent any weather packets the latest 10 day(s).
| Time | Temp. | Humidity | Pressure | Rain* | Wind** | Luminosity | Snow |
|---|---|---|---|---|---|---|---|
| 1777893349 | 10° C | 95% | 1013.8 hPa | 0 mm | - | 19 W/m² | - |
| 1777893045 | 10° C | 95% | 1013.8 hPa | 0 mm | - | 14 W/m² | - |
| 1777892743 | 10° C | 95% | 1013.8 hPa | 0 mm | - | 11 W/m² | - |
| 1777892439 | 10° C | 95% | 1014.4 hPa | 0 mm | - | 6 W/m² | - |
| 1777892135 | 10° C | 94% | 1014.4 hPa | 0.51 mm | - | 4 W/m² | - |
| 1777890316 | 9.44° C | 94% | 1015.1 hPa | 0.25 mm | - | 0 W/m² | - |
| 1777890012 | 9.44° C | 94% | 1015.1 hPa | 0 mm | - | 0 W/m² | - |
| 1777889710 | 9.44° C | 94% | 1015.1 hPa | 0 mm | - | 0 W/m² | - |
| 1777889408 | 9.44° C | 94% | 1015.1 hPa | 0 mm | - | 0 W/m² | - |
| 1777889105 | 9.44° C | 93% | 1015.1 hPa | 0 mm | - | 0 W/m² | - |
| 1777888498 | 9.44° C | 92% | 1015.5 hPa | 6.35 mm | - | 0 W/m² | - |
| 1777888195 | 9.44° C | 91% | 1015.5 hPa | 5.08 mm | - | 0 W/m² | - |
| 1777887589 | 9.44° C | 88% | 1014.8 hPa | 1.02 mm | - | 0 W/m² | - |
| 1777887284 | 10° C | 87% | 1014.8 hPa | 1.02 mm | - | 0 W/m² | - |
| 1777886980 | 10° C | 86% | 1014.8 hPa | 1.02 mm | - | 0 W/m² | - |
| 1777886676 | 10.56° C | 81% | 1014.8 hPa | 1.02 mm | - | 0 W/m² | - |
| 1777886374 | 10.56° C | 74% | 1014.8 hPa | 0 mm | - | 0 W/m² | - |
| 1777886072 | 10° C | 74% | 1014.8 hPa | 0 mm | - | 0 W/m² | - |
| 1777885769 | 10° C | 76% | 1014.8 hPa | 0 mm | - | 0 W/m² | - |
| 1777885467 | 10° C | 76% | 1014.8 hPa | 0 mm | - | 0 W/m² | - |
| 1777885166 | 10° C | 74% | 1014.8 hPa | 0 mm | - | 0 W/m² | - |
| 1777884862 | 10.56° C | 72% | 1014.8 hPa | 0 mm | - | 0 W/m² | - |
| 1777884559 | 10.56° C | 74% | 1014.8 hPa | 0 mm | - | 0 W/m² | - |
| 1777884256 | 10.56° C | 74% | 1014.8 hPa | 0 mm | - | 0 W/m² | - |
| 1777883952 | 10.56° C | 71% | 1014.8 hPa | 0 mm | - | 0 W/m² | - |
* Rain latest hour (hover to see other rain measurements)
** Current wind speed in m/s (hover to see current wind gust speed)